Regional Weather Roundup
Issued by NWS Upton, NY

Current Version | Previous Version | Graphics & Text | Print | Product List | Glossary Off
Versions: 1 2 3 4 5 6 7 8 9 10 11 12 13 14 15 16 17 18 19 20 21 22 23 24 25 26 27 28 29 30 31 32 33 34 35 36 37 38 39 40 41 42 43 44 45 46 47 48 49 50

667
ASUS41 KOKX 291109
RWROKX

REGIONAL WEATHER ROUNDUP
NATIONAL WEATHER SERVICE NEW YORK NY
700 AM EDT THU JUN 29 2017

NOTE: "FAIR" INDICATES FEW OR NO CLOUDS BELOW 12,000 FEET WITH NO
SIGNIFICANT WEATHER AND/OR OBSTRUCTIONS TO VISIBILITY.

NYZ071-072-176-178-NJZ106-104-291200-
NEW YORK CITY METRO AREA

CITY           SKY/WX    TMP DP  RH WIND       PRES   REMARKS
Central Park   MOSUNNY   68  58  70 VRB5      30.19R
Bronx Bot Gard   N/A     68  55  64 W8        30.17S
LaGuardia APRT PTSUNNY   70  58  65 SW13      30.15S
Kennedy INTL   PTSUNNY   68  62  81 SW7       30.17S
Breezy Point     N/A     66 N/A N/A SW6         N/A
Newark/Liberty PTSUNNY   68  58  70 SW8       30.16R
Teterboro      MOSUNNY   65  58  78 S3        30.15S
$$

NYZ177-179-078>081-291200-
LONG ISLAND NEW YORK

CITY           SKY/WX    TMP DP  RH WIND       PRES   REMARKS
Jones Beach      N/A     64 N/A N/A SW6         N/A
Matinecock PT    N/A    N/A N/A N/A SW9         N/A
Farmingdale    PTSUNNY   66  58  75 SW5       30.17R
MacArthur/ISP  CLOUDY    67  58  72 SW7       30.16S
Shirley        CLOUDY    67  59  75 SW5       30.17S
Mt Sinai Harb    N/A    N/A N/A N/A S5          N/A
Westhampton    CLOUDY    64  58  80 CALM      30.18S
East Hampton   FAIR      66  56  70 SW3       30.16S
Montauk          N/A     69  57  65 SW5       30.18R
$$

NYZ052-065-067-291200-
HUDSON VALLEY

CITY           SKY/WX    TMP DP  RH WIND       PRES   REMARKS
White Plains   CLOUDY    64  56  75 CALM      30.15S
Larchmont Harb   N/A     66 N/A N/A S8          N/A
Croton O-T Hud   N/A     68 N/A N/A MISG        N/A
Newburgh       PTSUNNY   64  55  72 NW5       30.16R
Montgomery     CLOUDY    62  57  83 CALM      30.14R
Poughkeepsie   CLOUDY    62  56  80 CALM      30.13R
Albany         CLOUDY    63  54  72 S6        30.09F
$$

NJZ001-105-106-008-010-013-015-019>022-104-291200-
NEW JERSEY

CITY           SKY/WX    TMP DP  RH WIND       PRES   REMARKS
Newark/Liberty PTSUNNY   68  58  70 SW8       30.16R
Teterboro      MOSUNNY   65  58  78 S3        30.15S
Caldwell       CLOUDY    65  55  70 CALM      30.17R
Somerville     CLOUDY    60  57  89 NW3       30.15S
Linden         FAIR      65  56  72 CALM      30.17S
Perth Amboy      N/A     64 N/A N/A SW5         N/A
Sussex         MOSUNNY   57  56  96 CALM      30.16R
Andover          N/A     61  57  87 CALM      30.16R
Trenton        CLOUDY    66  60  81 S5        30.17R
Millville      CLOUDY    68  64  87 VRB3      30.18S
Atlantic City  MOSUNNY   66  56  70 S7        30.19S
Wrightstown    CLOUDY    64  60  85 CALM      30.15S
Toms River     MOSUNNY   64  59  83 SW6       30.19S
Belmar         SUNNY     64  58  80 S6        30.19S
$$

PAZ047>061-062-071-291200-
EASTERN PENNSYLVANIA

CITY           SKY/WX    TMP DP  RH WIND       PRES   REMARKS
Philadelphia   CLOUDY    67  59  75 S10G18    30.17S
Allentown      CLOUDY    67  56  67 CALM      30.15S
Scranton       CLOUDY    64  54  69 CALM      30.13F
$$

CTZ002-004>006-009-010-012-RIZ004-006-007-MAZ004-011-015-291200-
SOUTHERN NEW ENGLAND
 IN CT

CITY           SKY/WX    TMP DP  RH WIND       PRES   REMARKS
Bradley INTL   CLOUDY    65  54  67 S6        30.13S
Hartford       CLOUDY    65  57  75 S6        30.14S
Danbury        SUNNY     64  54  68 W3        30.17
Wtrbury/Oxford CLOUDY    61  52  72 CALM      30.16F
Bridgeport     CLOUDY    69  57  65 SW5       30.15S
Meriden        PTSUNNY   61  58  90 CALM      30.15S
New Haven      CLOUDY    67  57  70 CALM      30.15F
Chester        FAIR      64  55  72 CALM      30.16F
Groton         CLOUDY    67  61  81 CALM      30.15S
Wilimantic     CLOUDY    59  56  89 CALM      30.16R

 IN RI

CITY           SKY/WX    TMP DP  RH WIND       PRES   REMARKS
Providence     PTSUNNY   66  58  75 W9        30.15R
Block Island   MOSUNNY   65  59  81 SW8       30.18R
Westerly       CLOUDY    66  62  87 VRB3      30.16S
 IN MA

CITY           SKY/WX    TMP DP  RH WIND       PRES   REMARKS
Boston         CLOUDY    67  55  65 SW13      30.11S
Worcester      MOSUNNY   60  51  72 W10       30.14S
Westfield      CLOUDY    61  58  90 SE3       30.12
Provincetown   CLOUDY    64  60  87 SW10      30.14R
Nantucket      PTSUNNY   65  63  93 W12       30.17R
$$

ANZ330-335-338-340-345-350-353-355-291200-
COASTAL MARINE OBSERVATIONS


STATION/POSITION TIME  SKY/WX   TEMP    WIND        PRES    VSBY  WAVE
                                AIR SEA DIR/SP/G                  HT/PER
                 (UTC)          (F)     (DEG/KT/KT) (MB)    (MI)  (FT/S)
NY HARB ENTRANCE 0950            67 67  240/ 10/ 10 1021.3          2/ 4
20 S FIRE ISLAND 1050            68 69  230/ 12/ 14 1021.8          3/ 5
GREAT SOUTH BAY  1015            69 74  240/  8/ 10   N/A
23 SSW MONTAUK P 0950            66 66              1021.9          4/ 6
15 E BARNEGAT LI 1030               63                N/A           2/ 5
HUDSON CANYON    0950            69 68  250/  8/ 10 1022.5          3/ 5
KINGS POINT      1030            69 65  250/  8/ 10 1020.9
EXECUTION ROCKS  1045            67     190/  6/  8   N/A
CENTRAL LI SOUND 1015            69     240/ 12/ 14   N/A           1
EASTERN LI SOUND NOT AVBL
ROBBINS REEF     1036                   240/ 13/ 16 1021.5
$$


>>>>>>>>>>>>>>>>>>>>>>>>>>>> KEY <<<<<<<<<<<<<<<<<<<<<<<<<<<
>                                                          <
>     SKY/WX - Sky Condition/Present Weather               <
>     TMP    - Temperature in Fahrenheit                   <
>     DP     - Dew Point in Fahrenheit                     <
>     RH     - Relative Humidity in Percent                <
>     WIND   - Direction (from) and Speed in MPH           <
>     PRES   - Mean Sea Level Pressure (inches of Hg)      <
>     WCI    - Wind Chill Index                            <
>     VSB    - VISIBILITY IN MILES                         <
>     HX     - HEAT INDEX                                  <
>     TC     - TEMPERATURE IN CELSIUS                      <
>     VRB    - VARIABLE WIND DIRECTION                     <
>                                                          <
>>>>>>>>>>>>>>>>>>>>>>>>>>>> KEY <<<<<<<<<<<<<<<<<<<<<<<<<<<




USA.gov is the U.S. government's official web portal to all federal, state and local government web resources and services.